Regional Weather Roundup
Issued by NWS

Home | Current Version | Previous Version | Graphics & Text | Print | Product List | Glossary On
Versions: 1 2 3 4 5 6 7 8 9 10 11 12 13 14 15 16 17 18 19 20 21 22 23 24 25 26 27 28 29 30 31 32 33 34 35 36 37 38 39 40 41 42 43 44 45 46 47 48 49 50
000
ASUS43 KIND 232000
RWRIN

WEATHER ROUNDUP FOR INDIANA
NATIONAL WEATHER SERVICE INDIANAPOLIS IN
400 PM EDT MON OCT 23 2017

NOTE: "FAIR" INDICATES FEW OR NO CLOUDS BELOW 12,000 FEET WITH NO
SIGNIFICANT WEATHER AND/OR OBSTRUCTIONS TO VISIBILITY.

* - STATION DOES NOT REPORT WEATHER SUCH AS PRECIPITATION OR FOG.

+ - STATION NOT QUALITY CONTROLLED BY THE NATIONAL WEATHER SERVICE.
    USE DATA WITH CAUTION...ESPECIALLY DEWPOINT AND RELATIVE
    HUMIDITY OBSERVATIONS.

INZ001>003-010>013-019-020-232100-
NORTHWEST INDIANA

CITY           SKY/WX    TMP DP  RH WIND       PRES   REMARKS
GARY /AIRPORT/ LGT RAIN  52  46  82 N14       29.70S
MONTICELLO +   RAIN      52  51  95 NW18G28   29.67R

$$

LMZ046-743>745-232100-
SOUTHERN LAKE MICHIGAN

STATION/POSITION TIME  TEMP    WIND        PRES    WAVE
                       AIR SEA DIR/SP/G            HT
                 (UTC) (F)     (DEG/KT/KT) (MB)    (FT)
BURNS HARBOR     1940   54     320/ 17/ 21 1005.1F
MICHIGAN CITY    1930   53     330/ 23/ 25   N/A
5NW MICH CITY    1950   54 57  350/ 16/ 21   N/A     6

$$

INZ004-005-014>016-021>024-232100-
NORTH CENTRAL INDIANA

CITY           SKY/WX    TMP DP  RH WIND       PRES   REMARKS
ELKHART        LGT RAIN  54  52  94 NW9       29.58F FOG
GOSHEN         RAIN      56  53  90 NW16G26   29.54F FOG
SOUTH BEND     RAIN      54  32  43 NW16      29.60F

$$

INZ006>009-017-018-025>027-232100-
NORTHEAST INDIANA

CITY           SKY/WX    TMP DP  RH WIND       PRES   REMARKS
FORT WAYNE     LGT RAIN  62  58  86 S24G31    29.55F
KENDALLVILLE + DRIZZLE   61  60  97 S10       29.54F

$$

INZ028-029-035-036-043>045-051>053-232100-
WEST CENTRAL INDIANA

CITY           SKY/WX    TMP DP  RH WIND       PRES   REMARKS
LAFAYETTE      LGT RAIN  52  51  97 W15G23    29.69R FOG
TERRE HAUTE    LGT RAIN  52  48  86 NW16G26   29.73F

$$

INZ030>032-037>040-046>048-054>057-064-065-232100-
CENTRAL INDIANA

CITY           SKY/WX    TMP DP  RH WIND       PRES   REMARKS
ANDERSON       CLOUDY    59  55  88 SW12G17   29.66R
COLUMBUS       LGT RAIN  57  55  94 SW12      29.69F FOG
GREENWOOD *+   CLOUDY    61  58  91 W7        29.68F
INDIANAPOLIS   LGT RAIN  57  55  93 W14       29.68S
-EAGLE CREEK   LGT RAIN  57  54  89 NW15      29.65F
KOKOMO +       LGT RAIN  56  54  93 W12       29.63S
MT COMFORT *+  CLOUDY    57  57 100 SW8       29.66F
SHELBYVILLE    LGT RAIN  59  55  87 SW8       29.66F

$$

INZ033-034-041-042-049-050-058-059-232100-
EAST CENTRAL INDIANA

CITY           SKY/WX    TMP DP  RH WIND       PRES   REMARKS
MUNCIE         LGT RAIN  61  56  83 SW13G22   29.63S
RICHMOND +     LGT RAIN  57  55  94 S10       29.68F

$$

INZ060-061-067>069-081>083-085>088-232100-
SOUTHWEST INDIANA

CITY           SKY/WX    TMP DP  RH WIND       PRES   REMARKS
EVANSVILLE     LGT RAIN  54  52  93 W10       29.79R FOG
HUNTINGBURG +  LGT RAIN  55  53  93 SW15      29.75F FOG

$$

INZ062-063-066-070>080-084-089>092-232100-
SOUTH CENTRAL AND SOUTHEAST INDIANA

CITY           SKY/WX    TMP DP  RH WIND       PRES   REMARKS
BLOOMINGTON    LGT RAIN  56  54  93 NW8       29.69F FOG
MADISON *+     CLOUDY    59  55  88 SW7       29.71F
SEYMOUR +      LGT RAIN  59  57  94 SW10      29.69F

$$





USA.gov is the U.S. government's official web portal to all federal, state and local government web resources and services.